Valparaiso, IN

2:29 AM CDT on May 25, 2018 (GMT -0500)
Porter County Municipal

Weather History for KVPZ - March, 2014

Change the Weather History Date:

Monday, March 24, 2014

  Actual Average Record
Temperature  
Mean Temperature 25 °F 41 °F  
Max Temperature 34 °F 50 °F 81 °F (2017)
Min Temperature 16 °F 31 °F 10 °F (1974)
Degree Days  
Heating Degree Days 40 24  
Month to date heating degree days 800 685  
Since 1 July heating degree days 6249 5417  
Cooling Degree Days 0 0  
Month to date cooling degree days 0 0  
Year to date cooling degree days 0 0  
Moisture  
Dew Point 11 °F    
Average Humidity 59    
Maximum Humidity 84    
Minimum Humidity 26    
Precipitation  
Precipitation 0.00 in 0.09 in 1.42 in (1947)
Month to date precipitation 0.60 1.84  
Year to date precipitation 3.23 5.01  
Sea Level Pressure  
Sea Level Pressure 30.28 in    
Wind  
Wind Speed 5 mph (WSW)    
Max Wind Speed 13 mph    
Max Gust Speed 17 mph    
Visibility 10 miles    
Events      
T = Trace of Precipitation, MM = Missing Value Source: NWS Daily Summary

Daily Weather History Graph

Daily Weather History Graph

Search for Another Location

Airport or City:

Astronomy

Mar. 24, 2014 Rise Set
Actual Time 6:44 AM CDT 7:04 PM CDT
Civil Twilight 6:16 AM CDT 7:32 PM CDT
Nautical Twilight 5:44 AM CDT 8:04 PM CDT
Astronomical Twilight 5:11 AM CDT 8:38 PM CDT
Moon 2:18 AM CDT (3/24) 12:25 PM CDT (3/24)
Length of Visible Light 13h 15m
Length of Day
12h 20m
Last Quarter, 43% of the Moon is Illuminated
Mar 24
Last Quarter
Mar 30
New
Apr 7
First Quarter
Apr 15
Full
Apr 22
Last Quarter

Hourly Weather History & Observations

Time (CDT) Temp. Windchill Dew Point Humidity Pressure Visibility Wind Dir Wind Speed Gust Speed Precip Events Conditions
12:53 AM 17.1 °F - 10.9 °F 77% 30.40 in 10.0 mi Calm Calm - N/A   Clear
1:53 AM 17.1 °F - 12.0 °F 81% 30.40 in 10.0 mi Calm Calm - N/A   Clear
2:53 AM 17.1 °F - 10.9 °F 77% 30.39 in 10.0 mi Calm Calm - N/A   Clear
3:53 AM 17.1 °F 10.0 °F 12.0 °F 81% 30.39 in 10.0 mi SW 4.6 mph - N/A   Clear
4:53 AM 17.1 °F - 12.9 °F 84% 30.38 in 10.0 mi Calm Calm - N/A   Clear
5:53 AM 17.1 °F 11.7 °F 12.0 °F 81% 30.37 in 10.0 mi SSW 3.5 mph - N/A   Partly Cloudy
6:53 AM 18.0 °F 11.1 °F 12.9 °F 81% 30.38 in 10.0 mi SSW 4.6 mph - N/A   Overcast
7:53 AM 19.9 °F 12.1 °F 14.0 °F 78% 30.37 in 10.0 mi SSW 5.8 mph - N/A   Partly Cloudy
8:53 AM 23.0 °F 13.9 °F 16.0 °F 74% 30.35 in 10.0 mi WSW 8.1 mph - N/A   Clear
9:53 AM 26.1 °F 16.8 °F 12.9 °F 58% 30.36 in 10.0 mi WNW 9.2 mph - N/A   Partly Cloudy
10:53 AM 27.0 °F 17.3 °F 10.0 °F 49% 30.35 in 10.0 mi West 10.4 mph - N/A   Scattered Clouds
11:53 AM 28.9 °F 21.1 °F 10.0 °F 45% 30.32 in 10.0 mi West 8.1 mph - 0.00 in   Partly Cloudy
12:53 PM 30.9 °F 23.5 °F 10.0 °F 42% 30.29 in 10.0 mi West 8.1 mph - N/A   Clear
1:53 PM 33.1 °F - 7.0 °F 34% 30.27 in 10.0 mi North - - N/A   Clear
2:53 PM 34.0 °F 28.8 °F 12.9 °F 42% 30.25 in 10.0 mi Variable 5.8 mph - N/A   Scattered Clouds
3:53 PM 33.1 °F 26.9 °F 10.9 °F 40% 30.23 in 10.0 mi Variable 6.9 mph - N/A   Clear
4:53 PM 33.1 °F 26.9 °F 1.0 °F 26% 30.21 in 10.0 mi NNW 6.9 mph - N/A   Clear
5:53 PM 32.0 °F 28.7 °F 3.9 °F 31% 30.20 in 10.0 mi NW 3.5 mph - N/A   Clear
6:53 PM 28.9 °F 23.9 °F 8.1 °F 41% 30.18 in 10.0 mi ENE 4.6 mph - N/A   Clear
7:53 PM 26.1 °F - 10.0 °F 51% 30.17 in 10.0 mi Calm Calm - N/A   Clear
8:53 PM 27.0 °F 21.6 °F 10.9 °F 51% 30.16 in 10.0 mi SSW 4.6 mph - N/A   Clear
9:53 PM 24.1 °F 17.0 °F 12.9 °F 62% 30.15 in 10.0 mi SW 5.8 mph - N/A   Clear
10:53 PM 24.1 °F 17.0 °F 12.9 °F 62% 30.14 in 10.0 mi SW 5.8 mph - N/A   Clear
11:53 PM 25.0 °F 19.3 °F 12.9 °F 60% 30.11 in 10.0 mi SSW 4.6 mph - N/A   Clear